Mankato, MN

9:06 AM CDT on August 22, 2019 (GMT -0500)
Mankato Regional

Weather History for KMKT - May, 2019

Change the Weather History Date:

Thursday, May 16, 2019

  Actual Average Record
Temperature  
Mean Temperature 72 °F -  
Max Temperature 82 °F 64 °F 84 °F (2018)
Min Temperature 60 °F 46 °F 35 °F (2014)
Cooling Degree Days 6    
Growing Degree Days 22 (Base 50)    
Moisture  
Dew Point 53 °F    
Average Humidity 55    
Maximum Humidity 84    
Minimum Humidity 33    
Precipitation  
Precipitation 0.00 in - - ()
Sea Level Pressure  
Sea Level Pressure 29.72 in    
Wind  
Wind Speed 12 mph (NW)    
Max Wind Speed 18 mph    
Max Gust Speed 24 mph    
Visibility 10 miles    
Events Rain    
Averages and records for this station are not official NWS values.
T = Trace of Precipitation, MM = Missing Value Source: NWS Daily Summary

Daily Weather History Graph

Daily Weather History Graph

Search for Another Location

Airport or City:

Astronomy

May. 16, 2019 Rise Set
Actual Time 5:48 AM CDT 8:36 PM CDT
Civil Twilight 5:14 AM CDT 9:10 PM CDT
Nautical Twilight 4:31 AM CDT 9:53 PM CDT
Astronomical Twilight 3:42 AM CDT 10:43 PM CDT
Moon 6:09 PM CDT (5/16) 4:55 AM CDT (5/16)
Length of Visible Light 15h 56m
Length of Day
14h 48m
Waxing Gibbous, 94% of the Moon is Illuminated
May 16
Waxing Gibbous
May 18
Full
May 26
Last Quarter
Jun 3
New
Jun 10
First Quarter

Hourly Weather History & Observations

Time (CDT) Temp. Heat Index Dew Point Humidity Pressure Visibility Wind Dir Wind Speed Gust Speed Precip Events Conditions
12:56 AM 66.9 °F - 52.0 °F 59% 29.73 in 10.0 mi South 12.7 mph - N/A   Clear
1:56 AM 66.9 °F - 53.1 °F 61% 29.71 in 10.0 mi South 15.0 mph 24.2 mph N/A   Clear
2:56 AM 66.9 °F - 54.0 °F 63% 29.68 in 10.0 mi South 13.8 mph 20.7 mph N/A   Clear
3:56 AM 66.9 °F - 55.0 °F 66% 29.65 in 10.0 mi SSW 13.8 mph 19.6 mph N/A   Clear
4:56 AM 66.9 °F - 55.9 °F 68% 29.64 in 10.0 mi SSW 15.0 mph 19.6 mph N/A   Clear
5:56 AM 66.0 °F - 57.9 °F 75% 29.68 in 10.0 mi West 6.9 mph - 0.00 in Rain Light Rain
6:56 AM 64.0 °F - 59.0 °F 84% 29.68 in 10.0 mi SSW 3.5 mph - N/A   Clear
7:56 AM 68.0 °F - 60.1 °F 76% 29.67 in 10.0 mi SW 5.8 mph - N/A   Clear
8:56 AM 71.1 °F - 60.1 °F 68% 29.68 in 10.0 mi WNW 9.2 mph - N/A   Clear
9:56 AM 75.0 °F - 60.1 °F 60% 29.69 in 10.0 mi NNW 8.1 mph 17.3 mph N/A   Clear
10:56 AM 79.0 °F - 51.1 °F 38% 29.70 in 10.0 mi NNE 10.4 mph - N/A   Clear
11:56 AM 79.0 °F - 50.0 °F 36% 29.71 in 10.0 mi North 9.2 mph - N/A   Clear
1:56 PM 82.0 °F - 50.0 °F 33% 29.69 in 10.0 mi North 11.5 mph 17.3 mph N/A   Clear
2:56 PM 82.0 °F - 50.0 °F 33% 29.70 in 10.0 mi NNW 15.0 mph - N/A   Clear
3:56 PM 81.0 °F 80.4 °F 53.1 °F 38% 29.71 in 10.0 mi NNW 9.2 mph 18.4 mph N/A   Clear
4:56 PM 81.0 °F - 52.0 °F 36% 29.72 in 10.0 mi NNW 16.1 mph - N/A   Clear
5:56 PM 78.1 °F - 53.1 °F 42% 29.73 in 10.0 mi NNW 18.4 mph 24.2 mph N/A   Partly Cloudy
6:56 PM 77.0 °F - 53.1 °F 43% 29.75 in 10.0 mi NNW 11.5 mph - N/A   Clear
7:56 PM 72.0 °F - 55.0 °F 55% 29.77 in 10.0 mi North 13.8 mph - N/A   Clear
8:56 PM 66.9 °F - 51.1 °F 57% 29.79 in 10.0 mi NNE 12.7 mph - N/A   Clear
9:56 PM 64.0 °F - 48.0 °F 56% 29.77 in 10.0 mi NNE 17.3 mph - N/A   Clear
10:56 PM 61.0 °F - 48.0 °F 62% 29.78 in 10.0 mi NNE 16.1 mph - N/A   Clear
11:56 PM 60.1 °F - 46.0 °F 60% 29.82 in 10.0 mi NNE 12.7 mph - N/A   Clear